Back to catalog

TURKSAT 6A

AliveCommunicationsGEO
NORAD 60233·PAYLOAD·🇹🇷 Turkey

Launched Jul 8, 2024 from Cape Canaveral Space Force Station

Loading…

TLE

FreshSource: Space-Track

Epoch: Sep 14, 2026, 14:00 UTC

1 60233U 24127A   26257.58342105  .00000138  00000-0  00000-0 0  9992
2 60233   0.0232 204.5765 0004203 352.7122  48.2683  1.00272541  7913

Track TURKSAT 6A in real time with AllMySat

Download on the App Store